Theta_e
302 302 302 301 301 304 305 305 306 304 305 307 305 308 306 306 306 307 310 314 315 316 316 317 317 319 319 318 319 319 318 319 319 317 317 318 318 318 319 320 321 321 320 322
301 301 301 300 301 301 305 304 305 304 305 307 309 305 306 307 308 308 308 308 311 313 315 316 316 318 318 316 318 318 318 319 320 319 316 315 317 319 319 319 319 320 321 322
299 299 299 300 300 300 301 301 305 304 305 304 304 304 304 304 304 305 306 308 309 309 312 314 316 316 315 312 315 317 319 319 320 322 319 318 316 317 319 320 321 319 320 321
299 298 299 299 300 300 300 303 301 305 308 305 304 303 303 303 303 303 303 304 306 308 309 310 314 315 314 314 312 313 316 317 318 319 320 319 319 318 318 319 320 319 320 320
297 299 299 299 298 298 301 301 300 303 304 303 304 305 304 304 303 304 304 304 305 305 308 309 311 312 312 313 312 313 314 317 318 319 318 317 318 318 318 318 319 319 319 319
299 298 299 299 299 300 302 300 300 300 303 304 304 305 304 304 303 302 302 303 303 304 305 305 306 308 310 311 311 311 312 316 317 319 319 317 317 318 318 319 319 319 319 320
297 298 298 300 300 301 300 300 300 301 304 304 304 303 303 303 303 303 302 302 303 304 303 304 305 305 309 310 310 310 312 314 316 319 319 318 318 319 318 318 319 319 319 319
297 299 298 300 300 301 301 300 300 300 303 303 302 302 302 301 301 301 301 301 301 302 303 307 307 307 310 311 311 311 310 313 314 318 319 319 316 317 319 318 319 319 320 319
298 297 299 299 301 302 301 299 299 299 302 302 301 302 302 302 302 302 301 301 302 303 305 308 307 309 311 310 311 312 312 311 313 316 319 322 319 318 318 319 320 320 320 320
297 298 299 299 299 300 300 299 299 299 299 300 300 301 301 300 301 302 301 301 303 303 306 307 306 308 311 312 312 314 314 313 314 314 319 318 319 318 317 319 320 322 320 319
297 297 299 298 298 299 299 299 299 299 300 299 299 299 300 300 301 304 301 303 304 305 306 307 307 308 308 308 311 314 314 315 314 314 318 321 316 315 318 320 319 319 320 321
296 297 299 298 298 297 298 299 300 299 300 300 299 299 299 300 300 300 302 303 304 305 307 307 308 309 310 312 313 313 315 315 316 316 318 318 314 316 315 314 318 317 319 319
296 298 298 298 297 296 297 298 299 299 299 299 299 300 300 300 300 300 301 302 303 303 303 303 306 311 311 313 314 312 315 315 316 317 318 318 315 314 314 314 315 315 316 317
296 297 298 297 297 297 297 297 298 299 299 300 300 301 300 301 300 301 301 302 303 304 304 304 306 306 305 314 312 314 314 315 315 316 317 317 317 313 313 313 312 313 313 314
296 297 298 298 296 296 297 297 298 299 299 300 300 301 301 302 302 302 302 302 303 303 304 304 307 306 307 310 312 312 313 314 315 315 316 317 317 316 313 313 313 313 312 313
296 296 297 296 296 296 297 299 299 299 299 298 301 300 301 302 303 303 303 303 302 303 303 304 304 305 307 308 313 311 311 312 313 315 315 316 316 314 316 314 313 314 313 313
295 295 295 295 295 296 298 298 300 300 300 299 301 302 302 302 303 303 303 303 303 303 304 304 305 306 307 308 309 310 311 311 312 312 314 313 313 314 313 314 314 314 313 313
295 294 295 295 295 296 297 297 297 298 300 299 302 301 303 303 303 303 303 304 304 304 304 304 305 306 306 309 309 308 308 311 311 311 311 312 314 313 312 312 313 314 313 313
294 294 295 295 296 297 298 297 298 298 298 300 301 302 302 304 304 303 304 304 306 304 307 306 307 307 309 308 308 308 308 309 311 312 312 311 311 312 311 312 313 314 314 313
294 294 296 297 297 297 297 298 298 299 299 298 301 301 302 303 304 305 305 305 306 307 306 306 306 308 306 306 306 307 308 309 309 310 312 312 311 311 311 311 312 313 314 314
295 296 296 296 297 298 298 299 300 299 299 298 299 300 301 301 303 304 304 306 306 308 307 307 307 307 307 306 306 306 307 307 309 309 310 312 312 312 311 310 311 312 313 314
295 295 295 296 297 298 300 300 300 300 300 301 300 300 300 300 302 303 304 305 306 306 307 308 307 307 307 307 307 307 307 307 308 308 309 310 312 312 311 311 311 311 311 313
295 295 295 295 297 300 299 299 301 300 301 301 300 301 301 301 303 304 304 305 304 306 306 305 306 306 306 308 308 309 309 309 308 308 309 310 310 311 311 311 311 311 311 311
295 296 297 298 298 299 300 300 300 301 301 302 301 302 303 302 303 304 304 304 305 304 304 303 305 305 306 307 307 307 307 308 310 309 309 310 310 311 311 311 311 310 310 311
295 295 296 298 299 298 299 299 300 300 301 300 302 302 303 304 303 303 303 304 304 305 304 304 304 307 308 307 307 308 308 307 308 310 310 309 309 309 310 310 310 310 311 311
294 294 295 296 298 300 299 297 298 299 300 300 301 300 303 303 304 305 303 304 304 304 305 308 307 307 307 307 306 306 306 306 306 309 310 310 309 309 309 309 310 310 311 311
293 293 294 295 297 298 298 298 299 300 300 302 302 304 303 304 304 305 304 304 303 304 307 307 307 306 305 305 305 304 304 304 305 306 309 310 310 309 308 309 309 309 310 311
Wind_Speed
30 29 28 28 25 22 25 17 5 14 15 17 17 14 19 15 28 23 18 7 19 21 22 19 21 25 19 17 13 22 26 12 12 16 1 17 20 18 18 7 9 8 9 3
31 30 29 29 26 23 25 14 20 17 20 10 11 18 22 26 23 21 20 20 17 15 19 21 17 19 15 5 10 12 13 14 13 13 7 7 12 20 20 19 11 12 8 1
32 32 32 31 30 27 26 12 4 20 22 24 21 21 22 22 25 19 9 14 22 20 19 18 11 16 5 7 8 14 7 15 24 17 14 14 12 21 23 20 14 16 16 5
32 32 32 32 32 32 27 26 6 9 5 17 22 20 18 17 18 19 18 14 16 21 24 25 19 25 23 14 8 5 7 13 23 24 25 9 13 21 26 27 26 15 16 16
33 33 34 33 33 34 35 27 7 17 22 21 20 18 21 23 19 15 12 15 17 17 14 16 20 15 15 7 8 4 6 14 19 22 23 12 14 16 22 28 25 24 17 12
34 36 37 38 34 32 37 35 33 12 15 17 16 16 22 18 16 18 19 18 18 19 18 23 26 23 17 9 3 4 5 12 17 18 20 11 15 23 20 21 24 24 21 21
37 36 39 40 36 37 36 28 24 12 9 16 17 16 19 19 19 17 17 20 18 23 20 19 25 26 25 20 15 10 6 7 9 13 14 16 14 18 21 22 23 21 21 11
41 40 41 30 30 30 40 37 27 16 7 17 16 20 18 16 20 18 21 26 29 23 18 7 7 12 11 16 20 19 11 6 5 9 13 12 5 4 21 18 20 21 21 17
37 34 23 21 24 22 33 36 27 7 4 11 23 16 20 14 14 14 21 23 24 21 7 6 8 9 13 11 10 21 19 15 7 5 17 21 12 11 14 13 13 16 22 19
35 26 19 14 8 10 16 16 18 10 5 14 13 13 14 19 16 11 18 17 17 22 9 11 12 17 7 15 21 10 12 6 11 13 11 14 10 14 17 14 5 17 24 28
31 26 13 12 7 7 11 12 14 19 9 20 17 23 25 20 19 11 16 9 13 6 9 9 12 12 18 20 24 22 14 13 7 11 16 20 9 13 14 8 1 1 11 23
32 26 16 13 11 10 12 14 14 17 16 19 13 26 32 30 30 24 19 13 8 5 5 7 7 9 8 20 18 20 17 11 12 14 18 5 23 11 27 5 3 2 7 17
28 19 13 11 11 11 14 15 12 13 20 28 31 31 31 29 35 32 25 23 22 9 17 4 3 6 8 14 17 21 24 22 16 16 19 24 14 22 14 11 3 5 9 16
24 17 12 9 12 13 14 17 16 19 8 5 21 21 27 31 32 33 37 36 27 17 15 7 4 5 5 9 16 18 12 16 19 22 21 17 26 22 15 20 7 3 8 16
21 17 12 9 15 15 16 18 19 21 17 4 7 14 20 19 26 33 32 35 33 24 4 4 5 5 5 8 11 8 13 14 13 12 18 17 22 27 22 25 14 9 10 17
17 14 12 13 13 13 11 6 13 24 27 6 3 13 17 17 21 23 28 29 31 27 8 4 7 19 6 3 5 17 23 23 29 18 20 27 19 9 22 25 23 16 10 15
15 15 15 14 14 13 10 6 3 3 24 5 3 4 7 15 15 22 22 21 18 20 14 7 8 15 10 4 10 16 19 24 22 22 26 18 19 15 9 19 18 14 11 10
13 13 13 13 13 15 20 24 22 20 16 6 3 4 5 11 9 6 15 12 16 10 10 5 7 11 5 4 13 19 23 22 15 18 22 23 32 19 13 12 10 15 14 15
11 11 11 10 11 9 14 15 15 22 12 2 3 3 3 9 10 12 10 12 6 9 4 4 5 6 6 13 18 20 18 23 24 19 18 19 26 26 16 14 15 18 16 20
11 9 5 5 7 12 7 5 5 16 6 7 4 6 4 3 8 7 5 8 5 4 7 11 5 6 25 30 28 24 20 22 24 26 26 22 22 28 21 14 15 19 18 21
11 7 6 9 7 11 7 6 5 5 3 6 6 16 7 10 8 6 6 3 3 3 5 7 5 8 17 33 37 38 33 30 27 28 29 27 24 22 20 18 16 19 20 23
7 5 6 7 7 7 4 4 4 5 4 6 5 9 15 10 8 5 3 3 3 5 8 3 3 9 17 22 28 29 31 31 32 29 28 26 28 25 17 19 19 20 19 23
11 7 4 4 3 4 5 4 4 4 4 5 5 4 5 10 7 4 3 3 5 1 3 4 7 13 14 9 7 10 15 20 27 31 29 28 30 26 22 15 14 16 17 21
5 3 4 4 4 4 4 5 3 2 4 3 8 7 4 6 6 4 4 5 1 3 3 9 9 14 8 9 11 12 15 15 22 25 28 28 27 26 25 25 17 15 17 17
3 3 3 5 4 2 1 2 3 4 4 1 4 5 5 3 4 5 4 4 5 6 9 11 11 5 3 8 11 13 14 16 19 23 25 27 21 21 25 27 23 23 20 19
3 4 4 8 4 6 6 3 10 6 6 5 4 3 4 6 4 6 6 4 7 6 8 2 1 5 8 8 10 13 13 13 15 16 22 25 23 18 22 21 21 22 21 22
3 4 9 12 10 5 6 6 6 4 2 2 3 6 10 2 4 5 6 9 9 10 3 4 4 7 9 9 11 12 12 14 14 15 19 22 22 18 20 20 19 20 20 22
Wind_Direction
280 278 282 283 281 274 251 244 241 228 199 208 216 235 241 250 257 268 277 260 275 274 282 277 249 242 245 210 212 196 209 228 211 210 154 229 205 213 214 213 218 233 287 289
282 277 276 277 278 269 257 231 226 227 203 224 233 241 250 241 255 259 263 263 241 269 298 288 269 261 258 203 195 194 205 230 239 186 196 212 226 216 227 225 256 255 239 166
283 281 274 273 270 271 262 262 227 213 215 227 235 227 241 252 254 259 254 276 279 270 257 268 272 274 54 352 261 233 265 219 223 221 221 176 202 210 215 223 224 232 235 210
289 284 274 269 266 267 262 248 230 197 205 217 226 238 246 250 250 247 237 250 261 261 266 260 263 265 273 320 310 274 185 232 241 244 257 235 208 204 204 211 218 226 240 233
295 286 281 276 270 261 248 243 229 226 235 216 216 216 231 237 239 251 245 246 248 257 272 284 276 308 280 243 299 276 196 249 253 249 243 229 237 225 212 214 221 231 247 243
296 293 286 279 270 252 234 233 240 266 215 209 214 201 214 228 242 256 255 264 268 267 257 268 272 291 287 238 269 315 291 231 245 249 230 220 251 222 211 216 220 225 231 239
299 294 286 282 262 249 238 227 221 212 230 214 210 216 237 235 236 249 262 264 262 254 277 282 264 277 266 239 235 236 284 295 271 244 246 211 255 215 202 209 212 217 234 240
305 300 290 274 264 244 224 225 212 194 206 209 204 217 223 235 244 245 253 263 261 268 271 274 282 261 238 215 231 228 224 266 269 232 207 250 165 217 189 202 228 220 223 220
304 300 289 272 250 232 218 200 189 147 136 207 221 223 224 231 241 251 254 264 258 259 261 231 227 240 225 215 216 212 205 223 243 295 233 230 247 201 197 192 257 212 213 210
312 294 293 308 223 229 216 211 196 174 177 241 221 221 235 242 254 262 271 272 253 237 219 238 243 246 253 232 209 179 187 179 207 231 243 242 254 150 153 185 270 204 198 203
299 288 276 274 274 237 221 223 217 205 228 252 236 243 246 241 241 244 255 279 245 215 217 228 229 246 244 246 244 194 188 172 183 214 236 243 145 152 185 200 87 319 205 193
302 284 245 255 248 234 234 238 233 231 230 258 260 253 247 245 244 253 260 240 252 236 230 207 232 242 260 237 238 218 201 194 197 194 217 285 187 208 211 251 278 206 194 186
295 268 232 235 251 240 244 248 243 240 247 262 255 250 249 242 237 236 248 249 250 215 238 288 284 260 257 240 226 233 208 191 210 238 231 227 213 221 218 226 219 217 175 175
286 241 229 228 252 250 250 251 251 234 239 260 273 259 238 246 236 232 232 243 242 249 221 222 211 242 275 257 242 229 209 207 210 214 235 221 229 226 225 210 222 208 177 176
274 243 239 237 252 255 256 260 253 239 214 278 307 290 264 234 227 228 232 235 240 241 233 240 216 223 252 272 268 259 245 207 207 213 203 223 225 236 231 226 226 223 186 168
260 246 248 253 258 255 262 272 254 238 225 230 256 254 260 223 221 219 224 229 234 233 233 213 263 261 254 275 269 246 246 247 230 220 219 229 243 280 232 231 225 221 205 187
249 245 249 256 252 247 218 224 239 272 216 217 223 238 222 221 211 222 224 225 220 222 226 221 245 244 205 229 248 269 243 250 260 246 235 251 250 238 253 224 229 223 207 190
243 249 253 248 256 256 252 252 254 245 201 214 250 239 227 181 197 206 205 213 219 233 213 202 225 247 220 265 253 251 261 263 263 250 241 236 245 264 268 259 225 199 211 198
243 243 247 255 242 237 252 270 257 229 237 253 203 233 223 179 218 202 200 208 216 208 217 195 200 194 226 224 233 237 246 243 241 251 254 248 245 251 268 245 225 216 212 205
234 230 213 228 219 231 216 220 214 195 215 208 250 220 240 238 211 205 207 193 198 216 211 146 208 229 239 245 246 248 240 242 237 238 238 228 231 250 252 258 228 214 216 204
202 200 223 233 233 197 201 201 217 164 222 215 222 226 225 223 246 255 230 205 195 243 175 198 206 243 236 237 240 242 241 241 236 234 239 234 232 238 249 243 242 235 222 210
209 212 262 253 221 199 190 201 169 212 230 180 221 224 223 236 230 239 237 220 227 250 138 248 251 251 245 230 231 237 240 240 239 239 238 235 235 240 243 238 235 241 235 221
240 232 193 230 201 232 191 181 181 204 202 193 198 204 212 210 227 231 225 243 233 314 208 232 229 249 263 271 285 267 254 240 236 239 238 234 234 233 235 235 228 235 240 219
200 204 225 258 180 229 186 206 241 91 246 213 211 232 213 193 188 223 221 225 263 243 247 236 255 262 264 270 277 266 263 258 239 232 230 228 230 229 229 232 228 227 232 228
171 199 238 226 237 320 39 326 268 234 251 303 281 264 227 212 223 195 215 215 224 218 228 239 247 169 214 264 277 277 273 263 254 240 228 224 224 223 223 230 226 229 235 224
191 227 255 249 254 201 188 212 283 271 254 246 218 252 255 219 231 189 198 219 222 242 238 246 158 247 253 276 291 283 273 273 267 254 235 222 212 201 210 214 206 213 225 211
221 250 251 272 302 291 276 266 242 190 172 248 213 220 219 196 221 214 206 226 240 263 224 228 264 292 294 290 294 298 306 290 265 255 238 226 211 195 195 196 192 197 204 201